Zurück zum Katalog

CZ-4B R/B

AktivSSO
NORAD 29507·ROCKET BODY·🇨🇳 China

Gestartet Oct 23, 2006 von Taiyuan Satellite Launch Center

Loading…

Nächste Überflüge (nächste 24 Stunden)

TLE

AktuellSource: Space-Track

Epoche: Sep 14, 2026, 02:30 UTC

1 29507U 06046C   26257.10476719  .00003110  00000-0  15282-3 0  9992
2 29507  97.5369 301.4330 0031342 336.0864  23.8912 15.18393204 88626

Verfolge CZ-4B R/B in Echtzeit mit AllMySat

Download on the App Store